| time (UTC) | temp F | wind direction | speed MPH | gust MPH | rain 1hr in | rain 24hr in | rain mn in | humidity % | barometer mb |
| 20260906193122 | 98 | 354 | 7.0 | 11.0 | 0.00 | 0.00 | 0.00 | 28 | 1011.8 |
| 20260906192122 | 98 | 358 | 4.0 | 9.0 | 0.00 | 0.00 | 0.00 | 28 | 1012.0 |
| 20260906191122 | 97 | 348 | 5.0 | 12.0 | 0.00 | 0.00 | 0.00 | 29 | 1012.1 |
| 20260906190122 | 97 | 350 | 6.0 | 12.0 | 0.00 | 0.00 | 0.00 | 29 | 1012.3 |
| 20260906185143 | 98 | 342 | 4.0 | 8.0 | 0.00 | 0.00 | 0.00 | 29 | 1012.5 |
| 20260906184122 | 98 | 348 | 4.0 | 10.0 | 0.00 | 0.00 | 0.00 | 29 | 1012.6 |
| 20260906183122 | 97 | 343 | 7.0 | 13.0 | 0.00 | 0.00 | 0.00 | 29 | 1012.8 |
| 20260906182123 | 97 | 349 | 7.0 | 11.0 | 0.00 | 0.00 | 0.00 | 30 | 1013.0 |
| 20260906181143 | 95 | 340 | 4.0 | 9.0 | 0.00 | 0.00 | 0.00 | 29 | 1013.2 |
| 20260906180122 | 96 | 347 | 4.0 | 8.0 | 0.00 | 0.00 | 0.00 | 29 | 1013.2 |
| 20260906175122 | 95 | 344 | 4.0 | 8.0 | 0.00 | 0.00 | 0.00 | 31 | 1013.2 |
| 20260906174123 | 95 | 345 | 5.0 | 10.0 | 0.00 | 0.00 | 0.00 | 31 | 1013.4 |
| 20260906173122 | 95 | 337 | 4.0 | 7.0 | 0.00 | 0.00 | 0.00 | 31 | 1013.5 |
| 20260906172122 | 94 | 339 | 3.0 | 6.0 | 0.00 | 0.00 | 0.00 | 32 | 1013.5 |
| 20260906171145 | 93 | 332 | 2.0 | 8.0 | 0.00 | 0.00 | 0.00 | 33 | 1013.5 |
| 20260906170143 | 93 | 342 | 3.0 | 6.0 | 0.00 | 0.00 | 0.00 | 34 | 1013.7 |
| 20260906165124 | 91 | 359 | 1.0 | 3.0 | 0.00 | 0.00 | 0.00 | 35 | 1013.7 |
| 20260906164122 | 91 | 330 | 3.0 | 5.0 | 0.00 | 0.00 | 0.00 | 35 | 1013.7 |
| 20260906163123 | 91 | 360 | 2.0 | 5.0 | 0.00 | 0.00 | 0.00 | 36 | 1013.8 |
| 20260906162143 | 91 | 64 | 2.0 | 5.0 | 0.00 | 0.00 | 0.00 | 35 | 1013.7 |
| 20260906161122 | 89 | 357 | 3.0 | 4.0 | 0.00 | 0.00 | 0.00 | 37 | 1013.6 |
| 20260906160123 | 89 | 354 | 3.0 | 4.0 | 0.00 | 0.00 | 0.00 | 37 | 1013.7 |
| 20260906155143 | 88 | 359 | 2.0 | 4.0 | 0.00 | 0.00 | 0.00 | 38 | 1013.9 |
| 20260906154144 | 88 | 64 | 2.0 | 3.0 | 0.00 | 0.00 | 0.00 | 38 | 1013.8 |
| 20260906153123 | 87 | 1 | 2.0 | 4.0 | 0.00 | 0.00 | 0.00 | 40 | 1013.9 |
| 20260906152122 | 88 | 78 | 2.0 | 5.0 | 0.00 | 0.00 | 0.00 | 39 | 1013.9 |
| 20260906151122 | 87 | 35 | 3.0 | 5.0 | 0.00 | 0.00 | 0.00 | 40 | 1013.9 |
| 20260906150143 | 87 | 85 | 3.0 | 5.0 | 0.00 | 0.00 | 0.00 | 41 | 1013.8 |
| 20260906145122 | 86 | 14 | 3.0 | 6.0 | 0.00 | 0.00 | 0.00 | 41 | 1013.9 |
| 20260906144122 | 85 | 43 | 3.0 | 6.0 | 0.00 | 0.00 | 0.00 | 42 | 1013.8 |
| 20260906143123 | 85 | 62 | 2.0 | 5.0 | 0.00 | 0.00 | 0.00 | 43 | 1013.9 |
| 20260906142122 | 84 | 61 | 3.0 | 4.0 | 0.00 | 0.00 | 0.00 | 44 | 1013.8 |
| 20260906141122 | 83 | 61 | 2.0 | 4.0 | 0.00 | 0.00 | 0.00 | 45 | 1013.5 |
| 20260906140122 | 82 | 57 | 2.0 | 5.0 | 0.00 | 0.00 | 0.00 | 46 | 1013.4 |
| 20260906135122 | 81 | 341 | 2.0 | 4.0 | 0.00 | 0.00 | 0.00 | 47 | 1013.3 |
| 20260906134122 | 80 | 341 | 2.0 | 3.0 | 0.00 | 0.00 | 0.00 | 49 | 1013.1 |
| 20260906133122 | 78 | 351 | 2.0 | 3.0 | 0.00 | 0.00 | 0.00 | 50 | 1013.0 |
| 20260906132122 | 78 | 359 | 2.0 | 3.0 | 0.00 | 0.00 | 0.00 | 50 | 1013.0 |
| 20260906131122 | 77 | 344 | 2.0 | 3.0 | 0.00 | 0.00 | 0.00 | 51 | 1012.8 |
| 20260906130122 | 77 | 357 | 2.0 | 4.0 | 0.00 | 0.00 | 0.00 | 52 | 1012.6 |
| 20260906125122 | 77 | 360 | 2.0 | 3.0 | 0.00 | 0.00 | 0.00 | 52 | 1012.6 |
| 20260906124122 | 77 | 338 | 1.0 | 2.0 | 0.00 | 0.00 | 0.00 | 52 | 1012.7 |
| 20260906123122 | 77 | 351 | 1.0 | 2.0 | 0.00 | 0.00 | 0.00 | 52 | 1012.5 |
| 20260906122143 | 78 | 360 | 0.0 | 1.0 | 0.00 | 0.00 | 0.00 | 51 | 1012.5 |
| 20260906121123 | 79 | 360 | 1.0 | 2.0 | 0.00 | 0.00 | 0.00 | 50 | 1012.5 |
| 20260906120122 | 79 | 342 | 1.0 | 4.0 | 0.00 | 0.00 | 0.00 | 50 | 1012.4 |
| 20260906115123 | 78 | 338 | 1.0 | 2.0 | 0.00 | 0.00 | 0.00 | 50 | 1012.4 |
| 20260906114122 | 79 | 360 | 0.0 | 2.0 | 0.00 | 0.00 | 0.00 | 49 | 1012.5 |
| 20260906113144 | 79 | 357 | 0.0 | 1.0 | 0.00 | 0.00 | 0.00 | 48 | 1012.4 |
| 20260906112122 | 79 | 357 | 0.0 | 2.0 | 0.00 | 0.00 | 0.00 | 49 | 1012.4 |
| 20260906111122 | 79 | 338 | 0.0 | 0.0 | 0.00 | 0.00 | 0.00 | 48 | 1012.4 |
| 20260906110123 | 79 | 338 | 1.0 | 2.0 | 0.00 | 0.00 | 0.00 | 48 | 1012.2 |
| 20260906105122 | 79 | 338 | 0.0 | 1.0 | 0.00 | 0.00 | 0.00 | 48 | 1012.4 |
| 20260906104123 | 80 | 337 | 0.0 | 2.0 | 0.00 | 0.00 | 0.00 | 47 | 1012.3 |
| 20260906103123 | 79 | 337 | 2.0 | 3.0 | 0.00 | 0.00 | 0.00 | 48 | 1012.3 |
| 20260906102124 | 79 | 360 | 1.0 | 2.0 | 0.00 | 0.00 | 0.00 | 48 | 1012.3 |
| 20260906101123 | 80 | 336 | 0.0 | 2.0 | 0.00 | 0.00 | 0.00 | 47 | 1012.2 |
| 20260906100123 | 80 | 336 | 1.0 | 3.0 | 0.00 | 0.00 | 0.00 | 47 | 1012.3 |
| 20260906095144 | 80 | 360 | 2.0 | 4.0 | 0.00 | 0.00 | 0.00 | 46 | 1012.3 |
| 20260906094145 | 80 | 353 | 2.0 | 3.0 | 0.00 | 0.00 | 0.00 | 47 | 1012.2 |
| 20260906093123 | 80 | 336 | 0.0 | 1.0 | 0.00 | 0.00 | 0.00 | 47 | 1012.3 |
| 20260906092123 | 81 | 337 | 0.0 | 1.0 | 0.00 | 0.00 | 0.00 | 45 | 1012.3 |
| 20260906091145 | 81 | 336 | 0.0 | 1.0 | 0.00 | 0.00 | 0.00 | 45 | 1012.4 |
| 20260906090123 | 82 | 338 | 0.0 | 0.0 | 0.00 | 0.00 | 0.00 | 44 | 1012.3 |
| 20260906085123 | 82 | 337 | 0.0 | 0.0 | 0.00 | 0.00 | 0.00 | 43 | 1012.1 |
| 20260906084123 | 83 | 344 | 2.0 | 3.0 | 0.00 | 0.00 | 0.00 | 42 | 1012.4 |
| 20260906083123 | 82 | 341 | 3.0 | 4.0 | 0.00 | 0.00 | 0.00 | 43 | 1012.5 |
| 20260906082124 | 82 | 338 | 2.0 | 3.0 | 0.00 | 0.00 | 0.00 | 43 | 1012.5 |
| 20260906081124 | 83 | 337 | 0.0 | 2.0 | 0.00 | 0.00 | 0.00 | 42 | 1012.6 |
| 20260906080124 | 83 | 341 | 2.0 | 3.0 | 0.00 | 0.00 | 0.00 | 42 | 1012.7 |
| 20260906075145 | 83 | 333 | 2.0 | 3.0 | 0.00 | 0.00 | 0.00 | 43 | 1012.7 |
| 20260906074124 | 82 | 336 | 2.0 | 3.0 | 0.00 | 0.00 | 0.00 | 43 | 1012.7 |
| 20260906073123 | 83 | 360 | 0.0 | 0.0 | 0.00 | 0.00 | 0.00 | 43 | 1012.7 |
| 20260906072144 | 84 | 343 | 1.0 | 2.0 | 0.00 | 0.00 | 0.00 | 41 | 1012.8 |
| 20260906071123 | 85 | 360 | 0.0 | 1.0 | 0.00 | 0.00 | 0.00 | 40 | 1012.9 |
| 20260906070144 | 86 | 354 | 2.0 | 4.0 | 0.00 | 0.00 | 0.00 | 39 | 1012.9 |
| 20260906065123 | 85 | 333 | 1.0 | 3.0 | 0.00 | 0.00 | 0.00 | 39 | 1012.8 |
| 20260906064123 | 86 | 333 | 1.0 | 3.0 | 0.00 | 0.00 | 0.00 | 38 | 1012.9 |
| 20260906063124 | 86 | 333 | 2.0 | 3.0 | 0.00 | 0.00 | 0.00 | 38 | 1012.9 |
| 20260906062123 | 86 | 332 | 2.0 | 3.0 | 0.00 | 0.00 | 0.00 | 38 | 1012.9 |
| 20260906061123 | 87 | 332 | 2.0 | 3.0 | 0.00 | 0.00 | 0.00 | 37 | 1012.8 |
| 20260906060145 | 87 | 336 | 3.0 | 4.0 | 0.00 | 0.00 | 0.00 | 37 | 1012.7 |
| 20260906055124 | 87 | 333 | 3.0 | 4.0 | 0.00 | 0.00 | 0.00 | 37 | 1012.8 |
| 20260906054124 | 87 | 360 | 2.0 | 4.0 | 0.00 | 0.00 | 0.00 | 37 | 1012.9 |
| 20260906053123 | 88 | 360 | 1.0 | 2.0 | 0.00 | 0.00 | 0.00 | 36 | 1012.9 |
| 20260906052123 | 88 | 358 | 1.0 | 3.0 | 0.00 | 0.00 | 0.00 | 36 | 1012.9 |
| 20260906051123 | 89 | 358 | 2.0 | 2.0 | 0.00 | 0.00 | 0.00 | 35 | 1012.9 |
| 20260906050123 | 90 | 343 | 2.0 | 4.0 | 0.00 | 0.00 | 0.00 | 34 | 1013.0 |
| 20260906045144 | 91 | 335 | 3.0 | 6.0 | 0.00 | 0.00 | 0.00 | 33 | 1013.0 |
| 20260906044144 | 91 | 351 | 4.0 | 7.0 | 0.00 | 0.00 | 0.00 | 33 | 1013.0 |
| 20260906043145 | 91 | 341 | 4.0 | 7.0 | 0.00 | 0.00 | 0.00 | 32 | 1012.9 |
| 20260906042144 | 91 | 335 | 4.0 | 6.0 | 0.00 | 0.00 | 0.00 | 32 | 1013.0 |
| 20260906041124 | 91 | 357 | 4.0 | 8.0 | 0.00 | 0.00 | 0.00 | 32 | 1013.0 |
| 20260906040124 | 92 | 344 | 3.0 | 6.0 | 0.00 | 0.00 | 0.00 | 32 | 1013.0 |
| 20260906035123 | 92 | 352 | 4.0 | 8.0 | 0.00 | 0.00 | 0.00 | 31 | 1013.0 |
| 20260906034124 | 92 | 346 | 6.0 | 9.0 | 0.00 | 0.00 | 0.00 | 31 | 1013.0 |
| 20260906033124 | 93 | 347 | 6.0 | 10.0 | 0.00 | 0.00 | 0.00 | 31 | 1012.9 |
| 20260906032145 | 93 | 350 | 5.0 | 8.0 | 0.00 | 0.00 | 0.00 | 31 | 1012.6 |
| 20260906031123 | 93 | 352 | 6.0 | 11.0 | 0.00 | 0.00 | 0.00 | 30 | 1012.6 |
| 20260906030124 | 93 | 353 | 8.0 | 12.0 | 0.00 | 0.00 | 0.00 | 30 | 1012.5 |
| 20260906025123 | 94 | 353 | 5.0 | 12.0 | 0.00 | 0.00 | 0.00 | 29 | 1012.5 |
| 20260906024124 | 94 | 353 | 6.0 | 10.0 | 0.00 | 0.00 | 0.00 | 29 | 1012.4 |
| 20260906023123 | 94 | 350 | 6.0 | 10.0 | 0.00 | 0.00 | 0.00 | 29 | 1012.3 |
| 20260906022123 | 94 | 357 | 7.0 | 11.0 | 0.00 | 0.00 | 0.00 | 29 | 1012.1 |
| 20260906021123 | 95 | 354 | 6.0 | 10.0 | 0.00 | 0.00 | 0.00 | 29 | 1012.0 |
| 20260906020124 | 95 | 351 | 4.0 | 8.0 | 0.00 | 0.00 | 0.00 | 28 | 1012.1 |
| 20260906015124 | 95 | 354 | 6.0 | 9.0 | 0.00 | 0.00 | 0.00 | 28 | 1012.2 |
| 20260906014124 | 95 | 352 | 7.0 | 11.0 | 0.00 | 0.00 | 0.00 | 28 | 1012.3 |
| 20260906013124 | 96 | 352 | 8.0 | 12.0 | 0.00 | 0.00 | 0.00 | 28 | 1012.3 |
| 20260906012144 | 96 | 356 | 10.0 | 16.0 | 0.00 | 0.00 | 0.00 | 27 | 1012.4 |
| 20260906011122 | 97 | 355 | 9.0 | 15.0 | 0.00 | 0.00 | 0.00 | 27 | 1012.3 |
| 20260906010122 | 97 | 357 | 10.0 | 16.0 | 0.00 | 0.00 | 0.00 | 27 | 1012.3 |
| 20260906005123 | 98 | 349 | 7.0 | 14.0 | 0.00 | 0.00 | 0.00 | 27 | 1012.3 |
| 20260906004123 | 98 | 353 | 8.0 | 12.0 | 0.00 | 0.00 | 0.00 | 28 | 1012.4 |
| 20260906003122 | 98 | 339 | 8.0 | 15.0 | 0.00 | 0.00 | 0.00 | 28 | 1012.4 |
| 20260906002123 | 98 | 343 | 10.0 | 14.0 | 0.00 | 0.00 | 0.00 | 29 | 1012.1 |
| 20260906001123 | 98 | 351 | 7.0 | 11.0 | 0.00 | 0.00 | 0.00 | 29 | 1012.0 |
| 20260906000122 | 98 | 346 | 9.0 | 15.0 | 0.00 | 0.00 | 0.00 | 29 | 1012.0 |
| 20260905235143 | 99 | 354 | 9.0 | 15.0 | 0.00 | 0.00 | 0.00 | 29 | 1012.2 |
| 20260905234124 | 99 | 336 | 6.0 | 10.0 | 0.00 | 0.00 | 0.00 | 29 | 1012.0 |
| 20260905233123 | 99 | 350 | 8.0 | 13.0 | 0.00 | 0.00 | 0.00 | 29 | 1012.0 |
| 20260905232124 | 99 | 337 | 6.0 | 11.0 | 0.00 | 0.00 | 0.00 | 30 | 1012.1 |
| 20260905231144 | 99 | 344 | 9.0 | 12.0 | 0.00 | 0.00 | 0.00 | 29 | 1012.2 |
| 20260905230145 | 98 | 348 | 5.0 | 12.0 | 0.00 | 0.00 | 0.00 | 30 | 1012.1 |
| 20260905225145 | 99 | 347 | 6.0 | 12.0 | 0.00 | 0.00 | 0.00 | 30 | 1012.2 |
| 20260905224123 | 99 | 348 | 7.0 | 13.0 | 0.00 | 0.00 | 0.00 | 29 | 1012.3 |
| 20260905223123 | 99 | 350 | 8.0 | 16.0 | 0.00 | 0.00 | 0.00 | 29 | 1012.3 |
| 20260905222144 | 99 | 347 | 8.0 | 13.0 | 0.00 | 0.00 | 0.00 | 29 | 1012.4 |
| 20260905221124 | 99 | 351 | 8.0 | 13.0 | 0.00 | 0.00 | 0.00 | 29 | 1012.6 |
| 20260905220123 | 99 | 348 | 7.0 | 15.0 | 0.00 | 0.00 | 0.00 | 30 | 1012.6 |
| 20260905215122 | 100 | 353 | 7.0 | 13.0 | 0.00 | 0.00 | 0.00 | 29 | 1012.8 |
| 20260905214122 | 99 | 344 | 7.0 | 14.0 | 0.00 | 0.00 | 0.00 | 29 | 1012.9 |
| 20260905213122 | 99 | 351 | 11.0 | 17.0 | 0.00 | 0.00 | 0.00 | 29 | 1012.9 |
| 20260905212124 | 99 | 337 | 5.0 | 10.0 | 0.00 | 0.00 | 0.00 | 29 | 1013.0 |
| 20260905211124 | 99 | 334 | 5.0 | 13.0 | 0.00 | 0.00 | 0.00 | 29 | 1013.4 |
| 20260905210143 | 99 | 347 | 7.0 | 12.0 | 0.00 | 0.00 | 0.00 | 29 | 1013.5 |
| 20260905205123 | 98 | 330 | 3.0 | 9.0 | 0.00 | 0.00 | 0.00 | 29 | 1013.5 |
| 20260905204123 | 98 | 352 | 7.0 | 11.0 | 0.00 | 0.00 | 0.00 | 29 | 1013.7 |
| 20260905203144 | 98 | 336 | 4.0 | 9.0 | 0.00 | 0.00 | 0.00 | 29 | 1013.7 |
| 20260905202122 | 98 | 318 | 6.0 | 10.0 | 0.00 | 0.00 | 0.00 | 28 | 1014.0 |
| 20260905201122 | 98 | 324 | 6.0 | 14.0 | 0.00 | 0.00 | 0.00 | 28 | 1014.0 |
| 20260905200122 | 98 | 342 | 5.0 | 12.0 | 0.00 | 0.00 | 0.00 | 28 | 1014.2 |
| 20260905195122 | 98 | 350 | 6.0 | 9.0 | 0.00 | 0.00 | 0.00 | 27 | 1014.3 |
| 20260905194122 | 98 | 327 | 7.0 | 11.0 | 0.00 | 0.00 | 0.00 | 28 | 1014.5 |